#timestamp,LO_Frequency,Hit 
1501920015.5,286046984.7,N
1501920035.3,286046984.6,N
1501920055.2,286046982.7,N
1501920075.9,286046981.3,N
1501920095.7,286046981.6,N
1501920115.7,286046980.9,N
1501920135.5,286046981.6,N
1501920155.4,286046981.8,N
1501920175.2,286046982.8,N
1501920195.0,286046983.0,N
1501920195.9,286046983.0,N
1501920215.8,286046979.6,N
1501920235.6,286046982.0,N
1501920255.4,286046983.6,N
1501920275.3,286046979.1,N
1501920295.1,286046980.8,N
1501920296.0,286046980.8,N
1501920315.8,286046983.6,N
1501920335.7,286046983.2,N
1501920355.5,286046979.4,N
1501920375.3,286046979.4,N
1501920395.2,286046981.8,N
1501920415.9,286046977.8,N
1501920435.7,286046979.9,N
1501920455.5,286046979.0,N
1501920475.4,286046979.0,N
1501920495.2,286046978.9,N
1501920515.0,286046979.3,N
1501920515.9,286046979.3,N
1501920535.8,286046979.5,N
1501920555.6,286046979.1,N
1501920575.4,286046978.5,N
1501920595.3,286046977.9,N
1501920615.1,286046978.3,N
1501920616.0,286046978.3,N
1501920635.8,286046976.1,N
1501920655.7,286046976.2,N
1501920675.5,286046978.7,N
1501920695.3,286046977.5,N
1501920715.1,286046977.3,N
1501920735.9,286046979.8,N
1501920755.7,286046979.1,N
1501920775.5,286046979.3,N
1501920795.4,286046979.9,N
1501920815.2,286046980.1,N
1501920835.0,286046981.8,N
1501920835.9,286046981.8,N
1501920855.8,286046982.0,N
1501920875.6,286046979.2,N
1501920895.4,286046980.1,N
1501920915.3,286046978.1,N
1501920935.1,286046978.5,N
1501920936.0,286046978.5,N
1501920955.8,286046975.7,N
1501920975.7,286046978.1,N
1501920995.5,286046978.4,N
1501921015.3,286046978.7,N
1501921035.1,286046978.7,N
1501921055.9,286046975.3,N
1501921075.7,286046973.2,N
1501921095.5,286046971.3,N
1501921115.4,286046970.0,N
1501921135.2,286046971.7,N
1501921155.0,286046971.7,N
1501921155.9,286046971.7,N
1501921175.8,286046970.0,N
1501921195.6,286046970.1,N
1501921215.4,286046970.0,N
1501921235.3,286046968.0,N
1501921255.1,286046968.6,N
1501921256.0,286046968.6,N
1501921275.8,286046969.2,N
1501921295.6,286046966.1,N
1501921315.5,286046966.8,N
1501921335.3,286046966.6,N
1501921355.1,286046966.7,N
1501921375.9,286046968.6,N
1501921395.7,286046969.1,N
1501921415.5,286046966.2,N
1501921435.4,286046967.6,N
1501921455.2,286046966.1,N
1501921475.0,286046963.3,N
1501921475.9,286046963.3,N
1501921495.8,286046963.0,N
1501921515.6,286046967.3,N
1501921535.4,286046966.2,N
1501921555.2,286046968.6,N
1501921575.1,286046966.3,N
1501921576.0,286046966.3,N
1501921595.8,286046964.7,N
1501921615.6,286046965.3,N
1501921635.5,286046967.5,N
1501921655.3,286046967.6,N
1501921675.1,286046964.8,N
1501921695.9,286046963.1,N
1501921715.7,286046964.0,N
1501921735.5,286046964.3,N
1501921755.4,286046964.3,N
1501921775.2,286046963.8,N
1501921795.0,286046963.2,N
1501921795.9,286046963.2,N
1501921815.8,286046961.7,N
1501921835.6,286046963.9,N
1501921855.4,286046962.1,N
1501921875.3,286046960.4,N
1501921895.1,286046959.9,N
1501921896.0,286046959.9,N
1501921915.8,286046960.2,N
1501921935.6,286046960.9,N
1501921955.5,286046959.0,N
1501921975.3,286046958.6,N
1501921995.1,286046958.6,N
1501922015.9,286046959.1,N
1501922035.7,286046960.5,N
1501922055.5,286046959.1,N
1501922075.4,286046957.6,N
1501922095.2,286046958.0,N
1501922115.0,286046958.0,N
1501922115.9,286046958.0,N
1501922135.8,286046957.4,N
1501922155.6,286046957.7,N
1501922175.4,286046957.4,N
1501922195.2,286046957.4,N
1501922215.1,286046955.1,N
1501922216.0,286046955.1,N
1501922235.8,286046955.8,N
1501922255.6,286046955.2,N
1501922275.5,286046956.2,N
1501922295.3,286046953.6,N
1501922315.1,286046955.5,N
1501922335.9,286046956.3,N
1501922355.7,286046953.4,N
1501922375.5,286046951.7,N
1501922395.4,286046953.6,N
1501922415.2,286046953.9,N
1501922435.0,286046954.0,N
1501922435.9,286046954.0,N
1501922455.0,286046953.7,N
1501922455.9,286046953.7,N
1501922475.8,286046952.5,N
1501922495.6,286046952.5,N
1501922515.4,286046952.0,N
1501922535.3,286046953.0,N
1501922555.1,286046952.3,N
1501922556.0,286046952.3,N
1501922575.8,286046954.5,N
1501922595.7,286046952.3,N
1501922615.5,286046954.6,N
1501922635.3,286046951.8,N
1501922655.2,286046954.7,N
1501922675.9,286046952.0,N
1501922695.7,286046951.7,N
1501922715.5,286046953.7,N
1501922735.4,286046953.6,N
1501922755.2,286046952.0,N
1501922775.0,286046952.0,N
1501922775.9,286046952.0,N
1501922795.8,286046953.6,N
1501922815.6,286046951.8,N
1501922835.4,286046951.6,N
1501922855.3,286046948.9,N
1501922875.1,286046950.9,N
1501922876.0,286046950.9,N
1501922895.8,286046950.4,N
1501922915.7,286046953.2,N
1501922935.5,286046952.9,N
1501922955.3,286046952.2,N
1501922975.2,286046952.3,N
1501922995.9,286046954.7,N
1501923015.7,286046950.8,N
1501923035.5,286046952.5,N
1501923055.4,286046950.9,N
1501923075.2,286046953.0,N
1501923095.0,286046948.6,N
1501923095.9,286046948.6,N
1501923115.8,286046949.1,N
1501923135.6,286046950.0,N
1501923155.4,286046949.5,N
1501923175.3,286046947.2,N
1501923195.1,286046949.4,N
1501923196.0,286046949.4,N
1501923215.8,286046947.4,N
1501923235.7,286046947.6,N
1501923255.5,286046949.1,N
1501923275.3,286046950.8,N
1501923295.1,286046951.4,N
1501923315.9,286046947.4,N
1501923335.8,286046949.4,N
1501923355.6,286046950.9,N
1501923375.4,286046953.1,N
1501923395.2,286046951.5,N
1501923415.1,286046951.6,N
1501923416.0,286046951.6,N
1501923435.8,286046949.6,N
1501923455.6,286046949.5,N
1501923475.5,286046949.8,N
1501923495.3,286046948.8,N
1501923515.1,286046951.3,N
1501923535.9,286046949.1,N
1501923555.7,286046949.4,N
1501923575.5,286046949.6,N
1501923595.4,286046945.4,N
